Voltar ao catálogo

STARLINK-4112

AtivoComunicaçõesVLEO
NORAD 52861·PAYLOAD·🇺🇸 United States

Lançado Jun 17, 2022 de Cape Canaveral Space Force Station

Loading…

Próximas Passagens (próximas 24 horas)

TLE

AtualizadoSource: CelesTrak SupGP

Época: Sep 15, 2026, 02:16 UTC

1 52861C 22062AH  26258.09493056 -.00031339  00000+0 -10077-2 0  2588
2 52861  53.1582 238.9705 0001357  89.2391 332.4404 15.31720666    18

Acompanhe STARLINK-4112 em tempo real com AllMySat

Download on the App Store